Location: *
(46.1333°S, 161.2167°W)
Time: 09:48:47
(UTC+00:00)

Cosmos 2298 Rocket - Pass Details

Date: 24 October 2020
Orbit: 777 x 783 km, 74.0° (Epoch: 25 November)

Event Time Altitude Azimuth Distance (km) Brightness Sun altitude
Exits shadow 11:04:51 25° 99° (E) 1,565 5.7 -31.3°
Drops below altitude 10° 11:08:16 10° 136° (SE) 2,371 7.2 -31.2°
Sets 11:11:00 0° 148° (SSE) 3,308 8.3 -31.1°
